Location: Bailleul
(50.3375°N, 2.8513°E)
Time: 20:50:08
(UTC+00:00)

Cosmos 1844 Rocket - Pass Details

Date: 19 April 2021
Orbit: 824 x 844 km, 71.0° (Epoch: 18 May)

Event Time Altitude Azimuth Distance (km) Brightness Sun altitude
Exits shadow 23:22:29 28° 83° (E) 1,520 4.0 -27.9°
Drops below altitude 10° 23:26:08 10° 46° (NE) 2,437 5.5 -28.0°
Sets 23:28:49 0° 36° (NE) 3,376 6.5 -28.0°
